Location: *
(46.3500°N, 10.9000°E)
Time: 08:36:37
(UTC+00:00)

Vanguard 2 - Pass Details

Date: 01 December 2021
Orbit: 554 x 2935 km, 32.9° (Epoch: 27 January)

Event Time Altitude Azimuth Distance (km) Brightness Sun altitude
Rises 17:23:20 0° 260° (W) 4,089 13.0 -18.6°
Reaches altitude 10° 17:26:11 10° 249° (WSW) 3,424 12.0 -19.1°
Maximum altitude 17:33:38 29° 193° (SSW) 2,940 10.7 -20.4°
Drops below altitude 10° 17:44:25 10° 142° (SE) 5,045 11.4 -22.2°
Sets 17:49:48 0° 133° (SE) 6,377 11.9 -23.1°
